This demonstration page uses our WeatherBlox Daily Observations layout. Learn more.

Left ArrowRight Arrow

Hourly Observations for May 3, 2016

Temp ( °F °C ) Dew Point ( °F °C ) Humidity (%) Winds ( mph kmh ) Pressure ( in mb ) Visibility ( mi km ) Precip ( " mm )
12:54 am 00:54 Clear 50 10 43 6.1 77 77 Calm 30.06 1018 10 16 0.00 0.00
1:54 am 01:54 Clear 48 8.9 43 6.1 83 83 Calm 30.06 1018 10 16 0.00 0.00
2:54 am 02:54 Clear 45 7.2 42 5.6 90 90 Calm 30.06 1018 10 16 0.00 0.00
3:54 am 03:54 Clear 43 6.1 41 5 93 93 Calm 30.07 1018 10 16 0.00 0.00
4:54 am 04:54 Clear 42 5.6 40 4.4 92 92 Calm 30.06 1018 10 16 0.00 0.00
5:54 am 05:54 Clear 40 4.4 38 3.3 93 93 N 3 6 30.07 1018 10 16 0.00 0.00
6:54 am 06:54 Sunny 41 5 39 3.9 93 93 N 3 6 30.08 1019 10 16 0.00 0.00
7:54 am 07:54 Sunny 45 7.2 42 5.6 90 90 SSE 3 6 30.07 1018 10 16 0.00 0.00
8:54 am 08:54 Sunny 53 11.7 43 6.1 69 69 Calm 30.08 1019 10 16 0.00 0.00
9:54 am 09:54 Sunny 58 14.4 46 7.8 65 65 Calm 30.08 1019 10 16 0.00 0.00
10:54 am 10:54 Sunny 63 17.2 39 3.9 41 41 Calm 30.07 1018 10 16 0.00 0.00
11:54 am 11:54 Sunny 66 18.9 39 3.9 37 37 WNW 6 9 30.06 1018 10 16 0.00 0.00
12:54 pm 12:54 Sunny 67 19.4 39 3.9 36 36 VRB 3 6 30.04 1017 10 16 0.00 0.00
1:54 pm 13:54 Sunny 69 20.6 38 3.3 32 32 W 7 11 30.02 1017 10 16 0.00 0.00
2:54 pm 14:54 Mostly Sunny 68 20 40 4.4 36 36 SSW 6 9 30.01 1016 10 16 0.00 0.00
3:54 pm 15:54 Partly Cloudy 72 22.2 40 4.4 31 31 W 9 15 29.98 1015 10 16 0.00 0.00
4:54 pm 16:54 Partly Cloudy 71 21.7 39 3.9 31 31 WNW 14 22 29.96 1015 10 16 0.00 0.00
5:54 pm 17:54 Mostly Sunny 71 21.7 38 3.3 30 30 W 14 22 29.95 1014 10 16 0.00 0.00
6:54 pm 18:54 Sunny 71 21.7 40 4.4 32 32 WNW 10 17 29.94 1014 10 16 0.00 0.00
7:54 pm 19:54 Sunny 69 20.6 40 4.4 35 35 W 8 13 29.92 1013 10 16 0.00 0.00
8:54 pm 20:54 Clear 65 18.3 42 5.6 43 43 W 7 11 29.92 1013 10 16 0.00 0.00
9:54 pm 21:54 Clear 62 16.7 44 6.7 52 52 W 7 11 29.92 1013 10 16 0.00 0.00
10:54 pm 22:54 Clear 60 15.6 45 7.2 58 58 W 7 11 29.90 1013 10 16 0.00 0.00
11:54 pm 23:54 Clear 59 15 45 7.2 60 60 W 6 9 29.89 1012 10 16 0.00 0.00

Powered by AerisWeather